This demonstration page uses our WeatherBlox Daily Observations layout. Learn more.

Left ArrowRight Arrow

38.88101, -77.10428

Hourly Observations for October 14, 2022

Temp ( °F °C ) Dew Point ( °F °C ) Humidity (%) Winds ( mph kmh ) Pressure ( in mb ) Visibility ( mi km ) Precip ( " mm )
12:52 am 00:52 Cloudy 57 13.9 52 11.1 83 83 N 10 17 29.85 1011 10 16 0.04 1.02
1:52 am 01:52 Cloudy with Light Rain 56 13.3 52 11.1 87 87 N 10 17 29.86 1011 10 16 0.01 0.25
2:52 am 02:52 Cloudy with Light Rain 56 13.3 52 11.1 87 87 NE 5 7 29.85 1011 10 16 0.01 0.13
3:52 am 03:52 Cloudy 56 13.3 53 11.7 90 90 NE 5 7 29.86 1011 10 16 0.01 0.13
4:52 am 04:52 Cloudy 56 13.3 52 11.1 87 87 ENE 5 7 29.86 1011 10 16 0.00 0.00
5:52 am 05:52 Cloudy 56 13.3 51 10.6 84 84 ESE 3 6 29.88 1012 10 16 0.00 0.00
6:52 am 06:52 Cloudy 56 13.3 52 11.1 87 87 SW 3 6 29.89 1012 10 16 0.00 0.00
7:52 am 07:52 Mostly Cloudy 56 13.3 52 11.1 87 87 WSW 3 6 29.91 1013 10 16 0.00 0.00
8:52 am 08:52 Mostly Cloudy 58 14.4 53 11.7 84 84 SSW 5 7 29.94 1014 10 16 0.00 0.00
9:52 am 09:52 Mostly Cloudy 59 15 52 11.1 77 77 SSE 5 7 29.97 1015 10 16 0.00 0.00
10:52 am 10:52 Mostly Sunny 61 16.1 52 11.1 72 72 S 6 9 29.98 1015 10 16 0.00 0.00
11:52 am 11:52 Mostly Sunny 64 17.8 49 9.4 58 58 S 7 11 29.98 1015 10 16 0.00 0.00
12:52 pm 12:52 Mostly Sunny 66 18.9 47 8.3 50 50 S 7 11 29.96 1015 10 16 0.00 0.00
1:52 pm 13:52 Mostly Sunny 67 19.4 44 6.7 44 44 SSE 7 11 29.94 1014 10 16 0.00 0.00
2:52 pm 14:52 Mostly Sunny 68 20 43 6.1 40 40 S 8 13 29.93 1014 10 16 0.00 0.00
3:52 pm 15:52 Mostly Sunny 68 20 44 6.7 42 42 S 8 13 29.93 1013 10 16 0.00 0.00
4:52 pm 16:52 Mostly Sunny 68 20 43 6.1 40 40 S 9 15 29.94 1014 10 16 0.00 0.00
5:52 pm 17:52 Mostly Sunny 66 18.9 41 5 40 40 S 8 13 29.95 1014 10 16 0.00 0.00
6:52 pm 18:52 Mostly Clear 63 17.2 46 7.8 54 54 SSE 5 7 29.96 1015 10 16 0.00 0.00
7:52 pm 19:52 Mostly Clear 60 15.6 46 7.8 60 60 SE 6 9 29.98 1015 10 16 0.00 0.00
8:52 pm 20:52 Mostly Clear 58 14.4 46 7.8 65 65 S 6 9 29.99 1016 10 16 0.00 0.00
9:52 pm 21:52 Mostly Clear 58 14.4 46 7.8 65 65 SSW 3 6 30.01 1016 10 16 0.00 0.00
10:52 pm 22:52 Clear 57 13.9 46 7.8 67 67 SSW 6 9 30.01 1016 10 16 0.00 0.00
11:52 pm 23:52 Clear 57 13.9 46 7.8 67 67 Calm 30.02 1017 10 16 0.00 0.00

Powered by AerisWeather